Hourly Weather Aalst

Today, 1 March, Monday

Time Temperature Precipitation Wind Pressure Humidity
00:00 +4°C° 0 mm 3 mps 774 mmHg 86%
01:00 +3°C° 0 mm 3 mps 773 mmHg 87%
02:00 +3°C° 0 mm 3 mps 773 mmHg 87%
03:00 +3°C° 0 mm 3 mps 773 mmHg 88%
04:00 +2°C° 0 mm 3 mps 773 mmHg 89%
05:00 +2°C° 0 mm 3 mps 773 mmHg 89%
06:00 +2°C° 0 mm 3 mps 773 mmHg 90%
07:00 +3°C° 0 mm 3 mps 773 mmHg 85%
08:00 +4°C° 0 mm 3 mps 772 mmHg 79%
09:00 +5°C° 0 mm 3 mps 772 mmHg 74%
10:00 +7°C° 0 mm 4 mps 772 mmHg 67%
11:00 +8°C° 0 mm 4 mps 772 mmHg 61%
12:00 +11°C° 0 mm 4 mps 772 mmHg 54%
13:00 +12°C° 0 mm 4 mps 771 mmHg 54%
14:00 +12°C° 0 mm 4 mps 771 mmHg 53%
15:00 +13°C° 0 mm 4 mps 771 mmHg 52%
16:00 +11°C° 0 mm 4 mps 771 mmHg 58%
17:00 +10°C° 0 mm 4 mps 771 mmHg 63%
18:00 +8°C° 0 mm 3 mps 771 mmHg 69%
19:00 +8°C° 0 mm 3 mps 771 mmHg 71%
20:00 +7°C° 0 mm 3 mps 771 mmHg 72%
21:00 +7°C° 0 mm 3 mps 771 mmHg 74%
22:00 +5°C° 0 mm 3 mps 771 mmHg 74%
23:00 +6°C° 0 mm 2 mps 771 mmHg 74%

Tomorrow, 2 March, Tuesday

Time Temperature Precipitation Wind Pressure Humidity
00:00 +6°C° 0 mm 2 mps 771 mmHg 74%
01:00 +5°C° 0 mm 2 mps 770 mmHg 76%
02:00 +5°C° 0 mm 2 mps 770 mmHg 78%
03:00 +4°C° 0 mm 2 mps 770 mmHg 79%
04:00 +4°C° 0 mm 2 mps 770 mmHg 81%
05:00 +4°C° 0 mm 2 mps 770 mmHg 83%
06:00 +4°C° 0 mm 2 mps 770 mmHg 85%
07:00 +5°C° 0 mm 2 mps 770 mmHg 80%
08:00 +6°C° 0 mm 2 mps 770 mmHg 76%
09:00 +7°C° 0 mm 2 mps 770 mmHg 71%
10:00 +9°C° 0 mm 2 mps 770 mmHg 67%
11:00 +12°C° 0 mm 2 mps 770 mmHg 62%
12:00 +13°C° 0 mm 2 mps 770 mmHg 58%
13:00 +14°C° 0 mm 2 mps 770 mmHg 57%
14:00 +15°C° 0 mm 2 mps 769 mmHg 55%
15:00 +15°C° 0 mm 2 mps 769 mmHg 54%
16:00 +14°C° 0 mm 1 mps 769 mmHg 61%
17:00 +12°C° 0 mm 1 mps 770 mmHg 68%
18:00 +11°C° 0 mm 1 mps 770 mmHg 75%
19:00 +11°C° 0 mm 1 mps 770 mmHg 78%
20:00 +10°C° 0 mm 1 mps 770 mmHg 81%
21:00 +10°C° 0 mm 1 mps 770 mmHg 84%
22:00 +9°C° 0 mm 1 mps 770 mmHg 85%
23:00 +9°C° 0 mm 1 mps 770 mmHg 87%

Day after tomorrow, 3 March, Wednesday

Time Temperature Precipitation Wind Pressure Humidity
00:00 +7°C° 0 mm 2 mps 770 mmHg 88%
01:00 +8°C° 0 mm 1 mps 770 mmHg 88%
02:00 +8°C° 0 mm 1 mps 770 mmHg 89%
03:00 +8°C° 0 mm 1 mps 769 mmHg 89%
04:00 +7°C° 0 mm 1 mps 769 mmHg 89%
05:00 +7°C° 0 mm 1 mps 769 mmHg 90%
06:00 +6°C° 0 mm 2 mps 769 mmHg 90%
07:00 +7°C° 0 mm 2 mps 769 mmHg 85%
08:00 +8°C° 0 mm 2 mps 769 mmHg 81%
09:00 +10°C° 0 mm 2 mps 769 mmHg 77%
10:00 +12°C° 0 mm 2 mps 769 mmHg 72%
11:00 +14°C° 0 mm 2 mps 769 mmHg 67%
12:00 +15°C° 0 mm 2 mps 768 mmHg 62%
13:00 +15°C° 0 mm 2 mps 768 mmHg 61%
14:00 +15°C° 0 mm 2 mps 768 mmHg 61%
15:00 +16°C° 0 mm 3 mps 767 mmHg 61%
16:00 +14°C° 0 mm 2 mps 767 mmHg 66%
17:00 +13°C° 0 mm 1 mps 767 mmHg 71%
18:00 +12°C° 0 mm 1 mps 766 mmHg 76%
19:00 +12°C° 0 mm 1 mps 766 mmHg 76%
20:00 +12°C° 0 mm 1 mps 766 mmHg 77%
21:00 +12°C° 0 mm 1 mps 766 mmHg 78%
22:00 +11°C° 0.2 mm 1 mps 765 mmHg 80%
23:00 +11°C° 0.2 mm 1 mps 765 mmHg 83%

4 March, Thursday

Time Temperature Precipitation Wind Pressure Humidity
00:00 +10°C° 0.2 mm 2 mps 765 mmHg 85%
01:00 +9°C° 0.6 mm 2 mps 764 mmHg 88%
02:00 +9°C° 0.6 mm 2 mps 764 mmHg 91%
03:00 +8°C° 0.6 mm 2 mps 763 mmHg 94%
04:00 +8°C° 0 mm 2 mps 763 mmHg 94%
05:00 +8°C° 0 mm 2 mps 762 mmHg 94%
06:00 +7°C° 0 mm 2 mps 762 mmHg 95%
07:00 +8°C° 0.1 mm 2 mps 762 mmHg 93%
08:00 +8°C° 0.1 mm 2 mps 762 mmHg 92%
09:00 +8°C° 0.1 mm 2 mps 762 mmHg 90%
10:00 +8°C° 0.1 mm 3 mps 761 mmHg 89%
11:00 +8°C° 0.1 mm 3 mps 761 mmHg 88%
12:00 +8°C° 0.1 mm 3 mps 761 mmHg 87%
13:00 +7°C° 0.1 mm 4 mps 761 mmHg 87%
14:00 +6°C° 0.1 mm 4 mps 761 mmHg 86%
15:00 +6°C° 0.1 mm 4 mps 761 mmHg 85%
16:00 +6°C° 0.1 mm 4 mps 761 mmHg 85%
17:00 +5°C° 0.1 mm 4 mps 761 mmHg 84%
18:00 +5°C° 0.1 mm 4 mps 762 mmHg 84%
19:00 +4°C° 0 mm 4 mps 762 mmHg 82%
20:00 +4°C° 0 mm 4 mps 762 mmHg 80%
21:00 +3°C° 0 mm 4 mps 763 mmHg 79%
22:00 +3°C° 0 mm 4 mps 763 mmHg 78%
23:00 +3°C° 0 mm 4 mps 763 mmHg 78%

5 March, Friday

Time Temperature Precipitation Wind Pressure Humidity
00:00 +3°C° 0 mm 3 mps 764 mmHg 78%
01:00 +3°C° 0 mm 3 mps 764 mmHg 77%
02:00 +2°C° 0 mm 3 mps 764 mmHg 76%
03:00 +1°C° 0 mm 4 mps 764 mmHg 75%
04:00 +1°C° 0 mm 4 mps 765 mmHg 75%
05:00 0°C° 0 mm 4 mps 765 mmHg 74%
06:00 -1°C° 0 mm 5 mps 766 mmHg 73%
07:00 0°C° 0 mm 5 mps 766 mmHg 72%
08:00 0°C° 0 mm 5 mps 767 mmHg 71%
09:00 0°C° 0 mm 5 mps 767 mmHg 69%
10:00 +1°C° 0 mm 6 mps 767 mmHg 64%
11:00 +2°C° 0 mm 6 mps 768 mmHg 58%
12:00 +3°C° 0 mm 6 mps 768 mmHg 53%
13:00 +4°C° 0 mm 6 mps 768 mmHg 49%
14:00 +4°C° 0 mm 6 mps 768 mmHg 45%
15:00 +4°C° 0 mm 6 mps 768 mmHg 41%
16:00 +3°C° 0 mm 5 mps 769 mmHg 43%
17:00 +2°C° 0 mm 5 mps 769 mmHg 45%
18:00 +1°C° 0 mm 4 mps 769 mmHg 46%
19:00 0°C° 0 mm 4 mps 770 mmHg 49%
20:00 +1°C° 0 mm 3 mps 771 mmHg 51%
21:00 0°C° 0 mm 3 mps 771 mmHg 53%
22:00 0°C° 0 mm 3 mps 771 mmHg 55%
23:00 -1°C° 0 mm 3 mps 772 mmHg 56%

6 March, Saturday

Time Temperature Precipitation Wind Pressure Humidity
00:00 -1°C° 0 mm 3 mps 772 mmHg 58%
01:00 -1°C° 0 mm 3 mps 772 mmHg 58%
02:00 -2°C° 0 mm 3 mps 772 mmHg 58%
03:00 -2°C° 0 mm 2 mps 772 mmHg 58%
04:00 -2°C° 0 mm 2 mps 772 mmHg 59%
05:00 -2°C° 0 mm 2 mps 772 mmHg 59%
06:00 -2°C° 0 mm 2 mps 772 mmHg 59%
07:00 -1°C° 0 mm 3 mps 773 mmHg 54%
08:00 +1°C° 0 mm 3 mps 773 mmHg 49%
09:00 +1°C° 0 mm 4 mps 773 mmHg 44%
10:00 +3°C° 0 mm 4 mps 773 mmHg 40%
11:00 +4°C° 0 mm 4 mps 773 mmHg 37%
12:00 +5°C° 0 mm 5 mps 773 mmHg 33%
13:00 +5°C° 0 mm 5 mps 772 mmHg 33%
14:00 +5°C° 0 mm 4 mps 772 mmHg 33%
15:00 +5°C° 0 mm 4 mps 772 mmHg 33%
16:00 +4°C° 0 mm 4 mps 772 mmHg 37%
17:00 +3°C° 0 mm 4 mps 772 mmHg 41%
18:00 +1°C° 0 mm 3 mps 772 mmHg 45%
19:00 +1°C° 0 mm 3 mps 772 mmHg 46%
20:00 0°C° 0 mm 3 mps 772 mmHg 48%
21:00 0°C° 0 mm 3 mps 772 mmHg 49%
22:00 -1°C° 0 mm 3 mps 772 mmHg 52%
23:00 -1°C° 0 mm 3 mps 772 mmHg 55%
Show more

We Need Your Consent

Meteoprog and our Service Providers may store and access personal data such as cookies, device identifiers or other similar technologies on your device and process such data to personalise content and ads, as well as provide social media features and to analyse the traffic.

  • Store and/or access information on your device

    Cookies, device identifiers or other information can be stored or accessed on your device for the purposes indicated above.

  • Personalised ads and content, ad and content measurement, audience insights, and products development

    Ads and content can be personalised based on a profile. More data can be added to better personalise ads and content. Ad and content performance can be measured. Insights about the audience who saw the ads and content can be derived. Such data can be used to develop or improve user’s experience, systems and software.

By clicking ‘I Agree’ you will allow the use of indicated cookies, device identifiers, web beacons or other similar technologies. Your settings can be changed in the browser on your device.

For certain purposes, legitimate interests may be relied on, rather than consent. You can read more about this in our Privacy and Cookie Policy.